Preview of NWS' New Version of Forecast
This preview is not operational and should not be used for support decisions.

Regional Weather Roundup (RWR)

Issued by National Weather Service (NWS)

                            
000
ASUS45 KBOI 240910
RWRID 

IDAHO REGIONAL WEATHER ROUNDUP
NATIONAL WEATHER SERVICE BOISE ID
300 AM MDT MON JUN 24 2019

NOTE: "FAIR" INDICATES FEW OR NO CLOUDS BELOW 12000 FEET
WITH NO SIGNIFICANT WEATHER AND/OR OBSTRUCTIONS TO VISIBILITY

IDZ012-014-241000-
SOUTHWEST IDAHO

  
CITY           SKY/WX    TMP DP  RH WIND       PRES   REMARKS
BOISE          CLEAR     56  39  53 S6        29.97R                  
CALDWELL       CLEAR     53  44  71 W6        29.97S                  
MOUNTAIN HOME  CLEAR     53  38  57 NW8       29.97S                  
$$

IDZ016-017-241000-
SOUTHCENTRAL IDAHO

  
CITY           SKY/WX    TMP DP  RH WIND       PRES   REMARKS
BURLEY         CLEAR     53  36  52 W10       29.98F                  
JEROME         CLEAR     52  39  61 S5        30.00R                  
TWIN FALLS     CLEAR     51  35  54 SW13      30.01S                  
$$

IDZ019>023-241000-
SOUTHEAST IDAHO

  
CITY           SKY/WX    TMP DP  RH WIND       PRES   REMARKS
IDAHO FALLS    CLEAR     51  35  54 SW12      29.96R                  
POCATELLO      CLEAR     56  31  38 SW14      29.98S                  
REXBURG        CLEAR     52  34  50 S9        29.94S                  
$$

IDZ006-010-011-018-031-032-241000-
CENTRAL IDAHO MOUNTAINS

  
CITY           SKY/WX    TMP DP  RH WIND       PRES   REMARKS
MCCALL         CLEAR     42  35  76 CALM      30.01S                  
HAILEY         CLEAR     45  34  65 NW8       30.03R                  
STANLEY          N/A     34  27  75 CALM      30.07S                  
SALMON         MOCLDY    50  41  71 CALM      30.00R                  
CHALLIS        CLEAR     48  32  53 CALM      29.99S                  
$$

IDZ002-004-006-007-026-241000-
NORTHERN IDAHO

  
CITY           SKY/WX    TMP DP  RH WIND       PRES   REMARKS
LEWISTON       PTCLDY    61  40  45 CALM      29.95R                  
LOWELL           N/A     52  50  93 CALM      29.99R                  
COEUR D'ALENE  CLOUDY    56  42  59 SW6       29.92R                  
MULLAN PASS    CLOUDY    43  37  79 SW8       29.99F                  
$$